Flag for U.S.A. Weather past 2 weeks in Atlanta, Georgia, U.S.A.

Now
49 °F

Overcast.


Feels Like: 46 °F
Forecast: 44 / 50 °F
Wind: 6 mph from East

Location: Fulton County Airport-Brown Field

Current Time: Dec 21, 2014 at 7:12:08 PM

Latest Report: Dec 21, 2014 at 6:53 PM


Visibility: 10 mi

Pressure: 30.11 "Hg

Humidity: 80%

Dew point: 43 °F

Location of AtlantaLocation

Historic Weather in Atlanta — Graph

°F

Atlanta temperature yesterday

Maximum temperature yesterday: 51 °F (at 3:53 PM)
Minimum temperature yesterday: 41 °F (at 12:53 AM)
Average temperature yesterday: 46 °F

Past Weeks' High & Low Weather Summary

 TemperatureHumidityPressure
High62 °F (Dec 7, 2:53 PM)93% (Dec 16, 6:53 AM)30.36 "Hg (Dec 16, 6:53 AM)
Low30 °F (Dec 15, 6:53 AM)13% (Dec 12, 1:53 PM)29.93 "Hg (Dec 16, 4:53 AM)
Average45 °F65%30.16 "Hg
* Reported Dec 6 5:53 PM — Dec 21 5:53 PM, Atlanta, Weather by CustomWeather, © 2014

Note: Actual official high and low records may vary slightly from our data, if they occured in-between our weather recording intervals... More about our weather records

Advertising

Atlanta weather history for previous 24 hours

 ConditionsComfort  
Time TempWeatherWind HumidityBarometerVisibility
5:53 PM
Dec 21
49 °FOvercast.5 mph80%30.11 "Hg9 mi
4:53 PM49 °FOvercast.9 mph80%30.11 "Hg9 mi
3:53 PM49 °FOvercast.8 mph80%30.11 "Hg10 mi
2:53 PM50 °FOvercast.6 mph77%30.11 "Hg10 mi
1:53 PM49 °FOvercast.7 mph84%30.13 "Hg10 mi
12:53 PM49 °FOvercast.6 mph80%30.15 "Hg9 mi
11:53 AM50 °FOvercast.7 mph77%30.18 "Hg10 mi
10:53 AM48 °FOvercast.6 mph83%30.21 "Hg8 mi
9:53 AM47 °FFog.7 mph86%30.21 "Hg6 mi
9:04 AM47 °FFog.8 mph86%30.20 "Hg5 mi
8:53 AM47 °FMostly cloudy.7 mph83%30.20 "Hg5 mi
7:53 AM45 °FFog.No wind90%30.19 "Hg4 mi
6:53 AM46 °FFog.8 mph86%30.20 "Hg6 mi
5:53 AM47 °FLow clouds.5 mph83%30.19 "Hg6 mi
4:53 AM47 °FLow clouds.3 mph86%30.19 "Hg7 mi
3:53 AM47 °FOvercast.5 mph86%30.19 "Hg7 mi
2:53 AM47 °FOvercast.5 mph83%30.19 "Hg9 mi
1:53 AM47 °FOvercast.3 mph83%30.19 "Hg10 mi
12:53 AM48 °FOvercast.6 mph83%30.20 "Hg9 mi
11:53 PM
Dec 20
49 °FOvercast.6 mph80%30.20 "Hg8 mi
10:53 PM48 °FOvercast.No wind86%30.21 "Hg8 mi
9:53 PM48 °FOvercast.No wind86%30.20 "Hg9 mi
8:53 PM48 °FOvercast.No wind86%30.20 "Hg9 mi
8:03 PM49 °FOvercast.No wind84%30.19 "Hg8 mi
7:53 PM49 °FOvercast.3 mph84%30.20 "Hg8 mi
Weather by CustomWeather, © 2014

See weather overviewHow to use our weather pages